SHT9Z EGPH-EGLL

Flight info

Callsign SHT9Z
Flight time N/A
Altitude 33000
Route GOSAM P600 FENIK L612 NAVSO DCT AKOMU DCT VAMEB DCT NUGRA
Aircraft A320/M-SDE3FGHIRWY/LB1

Departure

Time 2026-05-05 10:05
Airport Edinburgh Airport (EGPH)

Arrival

Time N/A
Airport London Heathrow Airport (EGLL)
Time Latitude Longitude Altitude Speed Heading
2026-05-05 09:37 55.94881 -3.36548 116 ft 0 kts 148°
2026-05-05 09:37 55.94905 -3.36494 113 ft 0 kts 148°
2026-05-05 09:42 55.94905 -3.36495 116 ft 0 kts 148°
2026-05-05 09:53 55.94915 -3.36506 112 ft 3 kts 149°
2026-05-05 09:53 55.94930 -3.36522 113 ft 3 kts 150°
2026-05-05 09:54 55.94947 -3.36535 112 ft 3 kts 180°
2026-05-05 09:54 55.94965 -3.36528 116 ft 3 kts 220°
2026-05-05 09:54 55.94978 -3.36503 112 ft 2 kts 238°
2026-05-05 09:54 55.94982 -3.36491 113 ft 1 kts 239°
2026-05-05 09:57 55.94973 -3.36518 112 ft 10 kts 239°
2026-05-05 09:58 55.94939 -3.36612 113 ft 8 kts 237°
2026-05-05 09:58 55.94907 -3.36706 116 ft 10 kts 241°
2026-05-05 09:58 55.94913 -3.36820 114 ft 12 kts 320°
2026-05-05 09:58 55.94900 -3.36970 115 ft 18 kts 236°
2026-05-05 09:59 55.94826 -3.37186 115 ft 22 kts 238°
2026-05-05 09:59 55.94744 -3.37429 112 ft 24 kts 239°
2026-05-05 09:59 55.94653 -3.37698 116 ft 26 kts 238°
2026-05-05 09:59 55.94555 -3.37990 114 ft 29 kts 239°
2026-05-05 10:00 55.94449 -3.38303 115 ft 28 kts 238°
2026-05-05 10:00 55.94342 -3.38614 115 ft 30 kts 239°
2026-05-05 10:00 55.94280 -3.38809 115 ft 9 kts 249°
2026-05-05 10:00 55.94295 -3.38875 116 ft 8 kts 322°
2026-05-05 10:01 55.94317 -3.38899 114 ft 0 kts 329°
2026-05-05 10:03 55.94317 -3.38900 116 ft 1 kts 329°
2026-05-05 10:03 55.94355 -3.38941 113 ft 9 kts 329°
2026-05-05 10:04 55.94414 -3.38958 112 ft 8 kts 26°
2026-05-05 10:04 55.94438 -3.38906 114 ft 0 kts 57°
2026-05-05 10:04 55.94451 -3.38869 114 ft 15 kts 57°
2026-05-05 10:05 55.94624 -3.38361 113 ft 81 kts 58°
2026-05-05 10:05 55.95015 -3.37207 112 ft 134 kts 58°
2026-05-05 10:05 55.95553 -3.35629 357 ft 157 kts 59°
2026-05-05 10:05 55.96189 -3.33998 938 ft 162 kts 41°
2026-05-05 10:06 55.97043 -3.32669 1557 ft 170 kts 40°
2026-05-05 10:06 55.97988 -3.31193 1941 ft 190 kts 40°
2026-05-05 10:06 55.99037 -3.29540 2283 ft 214 kts 40°
2026-05-05 10:06 56.00340 -3.28116 2750 ft 234 kts 15°
2026-05-05 10:07 56.02009 -3.28265 3354 ft 253 kts 339°
2026-05-05 10:07 56.03357 -3.30265 4253 ft 262 kts 304°
2026-05-05 10:07 56.03856 -3.33426 5045 ft 275 kts 270°
2026-05-05 10:07 56.03563 -3.36815 5736 ft 275 kts 256°
2026-05-05 10:08 56.02966 -3.40086 6397 ft 276 kts 250°
2026-05-05 10:08 56.02267 -3.43232 7503 ft 271 kts 251°
2026-05-05 10:08 56.01617 -3.46404 8441 ft 272 kts 253°
2026-05-05 10:08 56.01031 -3.49632 9344 ft 274 kts 255°
2026-05-05 10:09 56.00500 -3.52878 10179 ft 277 kts 256°
2026-05-05 10:09 55.99977 -3.56310 10517 ft 298 kts 257°
2026-05-05 10:09 55.99435 -3.60059 10731 ft 321 kts 257°
2026-05-05 10:09 55.98876 -3.64003 11190 ft 333 kts 257°
2026-05-05 10:10 55.98305 -3.68043 11870 ft 337 kts 257°
2026-05-05 10:10 55.97726 -3.72117 12601 ft 340 kts 257°
2026-05-05 10:10 55.97139 -3.76214 13338 ft 342 kts 257°
2026-05-05 10:10 55.96545 -3.80349 14058 ft 345 kts 257°
2026-05-05 10:11 55.95943 -3.84524 14694 ft 348 kts 257°
2026-05-05 10:11 55.95331 -3.88729 15305 ft 351 kts 257°
2026-05-05 10:11 55.94718 -3.92912 15902 ft 354 kts 257°
2026-05-05 10:11 55.94063 -3.97173 16500 ft 358 kts 252°
2026-05-05 10:12 55.92963 -4.01198 17110 ft 365 kts 238°
2026-05-05 10:12 55.91299 -4.04665 17733 ft 373 kts 224°
2026-05-05 10:12 55.89202 -4.07427 18363 ft 378 kts 217°
2026-05-05 10:12 55.87018 -4.10089 18926 ft 381 kts 217°
2026-05-05 10:13 55.84822 -4.12767 19502 ft 385 kts 217°
2026-05-05 10:13 55.82601 -4.15473 20089 ft 389 kts 217°
2026-05-05 10:13 55.80357 -4.18207 20647 ft 392 kts 217°
2026-05-05 10:13 55.78093 -4.20956 21181 ft 396 kts 215°
2026-05-05 10:14 55.75619 -4.23190 21685 ft 404 kts 202°
2026-05-05 10:14 55.72876 -4.24419 22174 ft 411 kts 190°
2026-05-05 10:14 55.70007 -4.24629 22663 ft 417 kts 178°
2026-05-05 10:14 55.67129 -4.23790 23143 ft 423 kts 166°
2026-05-05 10:15 55.64338 -4.22031 23606 ft 428 kts 157°
2026-05-05 10:15 55.61687 -4.19556 24008 ft 432 kts 152°
2026-05-05 10:15 55.59061 -4.16961 24409 ft 434 kts 152°
2026-05-05 10:15 55.56420 -4.14365 24802 ft 436 kts 153°
2026-05-05 10:16 55.53758 -4.11764 25188 ft 438 kts 153°
2026-05-05 10:16 55.51085 -4.09161 25559 ft 440 kts 153°
2026-05-05 10:16 55.48398 -4.06552 25929 ft 442 kts 153°
2026-05-05 10:16 55.46609 -4.04818 26181 ft 443 kts 153°
2026-05-05 10:17 55.43017 -4.01346 26659 ft 446 kts 153°
2026-05-05 10:17 55.40289 -3.98712 27035 ft 448 kts 153°
2026-05-05 10:17 55.37550 -3.96061 27405 ft 450 kts 154°
2026-05-05 10:17 55.34801 -3.93402 27751 ft 453 kts 154°
2026-05-05 10:18 55.32930 -3.91594 27983 ft 454 kts 154°
2026-05-05 10:18 55.29249 -3.88047 28435 ft 457 kts 154°
2026-05-05 10:18 55.27360 -3.86236 28661 ft 459 kts 154°
2026-05-05 10:18 55.24553 -3.83550 29033 ft 459 kts 154°
2026-05-05 10:19 55.21784 -3.80911 29529 ft 458 kts 155°
2026-05-05 10:19 55.18964 -3.78334 30005 ft 456 kts 156°
2026-05-05 10:19 55.16124 -3.75859 30432 ft 455 kts 157°
2026-05-05 10:19 55.13281 -3.73461 30860 ft 454 kts 158°
2026-05-05 10:20 55.10432 -3.71084 31293 ft 453 kts 158°
2026-05-05 10:20 55.07593 -3.68707 31728 ft 451 kts 158°
2026-05-05 10:20 55.04770 -3.66323 32166 ft 450 kts 157°
2026-05-05 10:20 55.01960 -3.63931 32590 ft 449 kts 157°
2026-05-05 10:21 54.99149 -3.61527 32960 ft 449 kts 157°